Regional Weather Roundup
Issued by NWS Albany, NY

Home | Current Version | Previous Version | Graphics & Text | Print | Product List | Glossary Off
Versions: 1 2 3 4 5 6 7 8 9 10 11 12 13 14 15 16 17 18 19 20 21 22 23 24 25 26 27 28 29 30 31 32 33 34 35 36 37 38 39 40 41 42 43 44 45 46 47 48 49 50

000
ASUS41 KALY 210910
RWRALY

NEW YORK STATE HOURLY WEATHER ROUNDUP
NATIONAL WEATHER SERVICE ALBANY NY
500 AM EDT FRI JUL 21 2017

NOTE: "FAIR" INDICATES FEW OR NO CLOUDS BELOW 12,000 FEET WITH NO
SIGNIFICANT WEATHER AND/OR NO OBSTRUCTIONS TO VISIBILITY.

NYZ032-033-038>043-046>054-057>066-NYZ062>081-082-084-211000-
EAST


CITY           SKY/WX    TMP DP  RH WIND       PRES   REMARKS
ALBANY         PTCLDY    63  60  90 CALM      29.88R
GLENS FALLS    PTCLDY    57  56  96 CALM      29.88R FOG
POUGHKEEPSIE   PTCLDY    68  66  93 S3        29.87S
NEWBURGH       PTCLDY    70  70 100 W6        29.90F
MONTGOMERY     CLEAR     68  67  96 W6        29.90R
ISLIP          CLEAR     74  68  81 W3        29.86S
NEW YORK CITY  PTCLDY    78  70  76 NW6       29.87R
CENTRAL PARK   PTCLDY    77  68  73 VRB5      29.91S
$$

NYZ005>009-017-018-044>046-055-056-211000-
CENTRAL


CITY           SKY/WX    TMP DP  RH WIND       PRES   REMARKS
FULTON         MOCLDY    62  60  93 CALM      29.90S FOG
SYRACUSE       CLOUDY    68  68 100 CALM      29.90R
ROME           CLOUDY    64  61  90 CALM      29.91R
ELMIRA         FOG       67  67 100 CALM      29.95R VSB 1/4
BINGHAMTON     FOG       65  65 100 W6        29.96R VSB 1/4
$$

NYZ026>034-041>043-087-211000-
NORTH


CITY           SKY/WX    TMP DP  RH WIND       PRES   REMARKS
WATERTOWN      CLEAR     63  62  97 S5        29.89R
FORT DRUM      NOT AVBL
OGDENSBURG     FAIR      62  60  95 S3        29.87S
MASSENA        CLEAR     63  61  93 SW6       29.87R
SARANAC LAKE   PTCLDY    44  44 100 CALM      29.92R FOG
PLATTSBURGH    CLEAR     59  53  80 CALM      29.84R
$$

NYZ001>004-010>016-019>021-085-211000-
WEST


CITY           SKY/WX    TMP DP  RH WIND       PRES   REMARKS
NIAGARA FALLS  PTCLDY    72  68  87 CALM      29.92S FOG
BUFFALO        MOCLDY    72  71  97 SW5       29.93R
DUNKIRK        CLEAR     70  67  90 S5        29.94S
JAMESTOWN      CLEAR     66  63  88 SW7       29.99S
WELLSVILLE     PTCLDY    68  64  87 W8        30.02R
ROCHESTER      MOCLDY    67  66  97 W3        29.92R FOG
PENN YAN       CLEAR     69  66  90 SW7       29.94R
$$

             KEY
       WCI = WIND CHILL INDEX
       VSB = VISIBILITY
       HX  = HEAT INDEX
$$



USA.gov is the U.S. government's official web portal to all federal, state and local government web resources and services.